Hourly Data Report for October 16, 2013

All times are specified in Local Standard Time (LST). Add 1 hour to adjust for Daylight Saving Time where and when it is observed.

KITCHENER/WATERLOO
ONTARIO

43°27'39.000" N
80°22'43.000" W
321.60 m
6144239
71368
YKF

Download Data

Hourly Data (October 2013)
Hourly Data Report for October 16, 2013
Temp Definition
°C
Dew Point Temp Definition
°C
Rel Hum Definition
%
Wind Dir Definition
10's deg

Wind Spd Definition
km/h
Visibility Definition
km
Stn Press Definition
kPa
Hmdx Definition


Wind Chill Definition


Weather Definition


TIME
00:00 Legend Double Dagger 15.1 14.0 93 17 13 6.4 97.34     LegendNANA
01:00 Legend Double Dagger 15.5 14.7 95 18 17 2.4 97.30     LegendNANA
02:00 Legend Double Dagger 16.1 15.2 94 19 22 11.3 97.21     LegendNANA
03:00 Legend Double Dagger 16.1 15.3 95 20 17 2.4 97.17     LegendNANA
04:00 Legend Double Dagger 16.3 15.0 92 23 18 14.5 97.19     LegendNANA
05:00 Legend Double Dagger 15.8 14.9 94 22 13 9.7 97.19     LegendNANA
06:00 Legend Double Dagger 15.7 14.4 92 22 18 11.3 97.20     LegendNANA
07:00 Legend Double Dagger 15.4 14.3 93 21 18 8.1 97.22     LegendNANA
08:00 Legend Double Dagger 15.6 14.1 91 22 21 8.1 97.23     LegendNANA
09:00 Legend Double Dagger 16.4 14.7 90 22 11 12.9 97.22     LegendNANA
10:00 Legend Double Dagger 17.1 14.4 84 21 21 16.1 97.16     LegendNANA
11:00 Legend Double Dagger 18.8 14.3 75 21 18 16.1 97.11     LegendNANA
12:00 Legend Double Dagger 18.5 13.3 71 22 26 16.1 97.02     LegendNANA
13:00 Legend Double Dagger 20.6 12.1 58 21 48 16.1 96.95     LegendNANA
14:00 Legend Double Dagger 19.2 12.1 63 23 32 16.1 96.93     LegendNANA
15:00 Legend Double Dagger 17.9 11.7 67 28 18 16.1 96.94     LegendNANA
16:00 Legend Double Dagger 17.0 10.0 63 28 24 16.1 96.96     LegendNANA
17:00 Legend Double Dagger 15.6 7.8 60 28 18 16.1 96.96     LegendNANA
18:00 Legend Double Dagger 12.8 7.6 70 29 17 16.1 97.03     LegendNANA
19:00 Legend Double Dagger 12.1 8.1 76 28 21 16.1 97.11     LegendNANA
20:00 Legend Double Dagger 11.2 7.9 80 25 18 16.1 97.17     LegendNANA
21:00 Legend Double Dagger 11.3 7.7 78 26 21 16.1 97.22     LegendNANA
22:00 Legend Double Dagger 11.2 7.7 79 24 21 16.1 97.24     LegendNANA
23:00 Legend Double Dagger 10.9 7.8 81 22 21 16.1 97.22     LegendNANA

Notes on Data Quality.

Legend

  • E = Estimated
  • M = Missing
  • NA = Not Available
  • ‡ = Partner data that is not subject to review by the National Climate Archives
Date modified: